User: anonymous   Login
Location: Unspecified
(0.0000°N, 0.0000°E)
Time: 14:00:57
(UTC+00:00)
Language:

SO-50 - Orbit

View from above orbital plane
View from above orbital plane
View from above satellite
View from above satellite

Ground track
Ground track

The orbit data is extracted from the following two-line orbital elements,

1 27607U 02058C   18050.61390995 +.00000005 +00000-0 +21385-4 0  9991
2 27607 064.5549 089.4052 0051206 356.5477 003.5264 14.75420799815480
Epoch (UTC): 19 February 2018 14:44:01
Eccentricity: 0.0051206
inclination: 64.5549°
perigee height: 608 km
apogee height: 680 km
right ascension of ascending node: 89.4052°
argument of perigee: 356.5477°
revolutions per day: 14.75420799
mean anomaly at epoch: 3.5264°
orbit number at epoch: 81548

The dashed part of the orbit path shows where the satellite is in the earth's shadow,  

DLR